TimeCDT,TemperatureF,Dew PointF,Humidity,Sea Level PressureIn,VisibilityMPH,Wind Direction,Wind SpeedMPH,Gust SpeedMPH,PrecipitationIn,Events,Conditions,WindDirDegrees,DateUTC
1:53 AM,26.1,10.9,53,30.14,10.0,NNW,10.4,-,N/A,,Clear,330,2013-03-21 06:53:00
2:53 AM,24.1,12.0,60,30.13,10.0,North,8.1,-,N/A,,Clear,360,2013-03-21 07:53:00
3:53 AM,23.0,12.0,63,30.12,10.0,North,6.9,-,N/A,,Clear,360,2013-03-21 08:53:00
4:53 AM,23.0,10.9,60,30.11,10.0,North,6.9,-,N/A,,Clear,350,2013-03-21 09:53:00
5:53 AM,21.9,10.9,63,30.12,10.0,NNW,6.9,-,N/A,,Clear,330,2013-03-21 10:53:00
6:53 AM,21.9,10.9,63,30.13,10.0,North,5.8,-,N/A,,Clear,350,2013-03-21 11:53:00
7:53 AM,24.1,12.0,60,30.14,10.0,NW,6.9,-,N/A,,Clear,320,2013-03-21 12:53:00
8:53 AM,25.0,10.9,55,30.15,10.0,North,8.1,-,N/A,,Clear,350,2013-03-21 13:53:00
9:53 AM,26.1,12.0,55,30.15,10.0,North,8.1,-,N/A,,Clear,360,2013-03-21 14:53:00
10:53 AM,28.0,12.0,51,30.15,10.0,North,3.5,-,N/A,,Clear,350,2013-03-21 15:53:00
11:53 AM,30.0,12.0,47,30.14,10.0,Variable,5.8,-,N/A,,Clear,0,2013-03-21 16:53:00
12:53 PM,32.0,12.0,44,30.11,10.0,Calm,Calm,-,N/A,,Clear,0,2013-03-21 17:53:00
1:53 PM,32.0,10.9,42,30.08,10.0,Calm,Calm,-,N/A,,Clear,0,2013-03-21 18:53:00
2:53 PM,34.0,12.9,42,30.04,10.0,Calm,Calm,-,N/A,,Clear,0,2013-03-21 19:53:00
3:53 PM,37.0,12.9,37,30.02,10.0,Calm,Calm,-,N/A,,Partly Cloudy,0,2013-03-21 20:53:00
4:53 PM,37.0,14.0,39,30.01,10.0,NNW,3.5,-,N/A,,Scattered Clouds,340,2013-03-21 21:53:00
5:53 PM,36.0,17.1,46,30.02,10.0,ESE,9.2,-,N/A,,Mostly Cloudy,120,2013-03-21 22:53:00
6:53 PM,34.0,18.0,52,30.03,10.0,ESE,8.1,-,N/A,,Clear,110,2013-03-21 23:53:00
7:53 PM,30.9,18.0,59,30.02,10.0,East,8.1,-,N/A,,Clear,90,2013-03-22 00:53:00
8:53 PM,30.9,19.0,61,30.03,10.0,East,8.1,-,N/A,,Clear,100,2013-03-22 01:53:00
9:53 PM,32.0,19.0,59,30.05,10.0,ESE,5.8,-,N/A,,Overcast,110,2013-03-22 02:53:00
10:53 PM,30.9,19.0,61,30.04,10.0,East,5.8,-,N/A,,Clear,100,2013-03-22 03:53:00
11:53 PM,32.0,19.0,59,30.04,10.0,East,6.9,-,N/A,,Overcast,90,2013-03-22 04:53:00